Content
SEND FEEDBACK

Daily
Averages
Monthly
Summary
Mexico

PUEBLA - JARDINES DE SAN MANUEL, PUEBLA


Home > North America > Mexico > Puebla
Elevation: 6962 feet     Latitude: 19 00N     Longitude: 098 11W

WEATHER
 
SELECT A DAY
Number of Records: 125,444;   Date Range: 1/1/95 - 12/18/14
 
SHARE

PRINT THIS DATA

[ ← Previous Day ]
WEATHER ALMANAC - APRIL 24, 2013
[ Next Day → ]
[ °C ]   °F
Weather ElementAverageHighLow
Temperature64 °F81 °F (3:50 pm)50 °F (6:15 am)
Dewpoint47.5 °F54 °F (6:50 am)41 °F (2:45 pm)
Humidity58.1 %94 % (6:49 am)23 % (3:50 pm)
Barometer30.19 in30.40 in (9:55 pm)29.67 in (6:50 pm)
Wind Speed5.2 mph12.7 mph (4:40 pm)
Weather ElementAverage
Visibility4.5 mi
Wind DirectionSSE (172.8 °)

Weather ElementTotal
Precipitation---
Cooling Degree Days0.5 (Base 65)
Growing Degree Days15.5 (Base 50)
Averaged from 26 records on April 24, 2013
WEATHER CONDITIONS BREAKOUT
WIND DIRECTION BREAKOUT
WEATHER BY HOUR - APRIL 24, 2013
[ °C ]   °F
Local TimeTemperatureDewpointHumidityBarometerVisibilityWind DirectionWind SpeedGust SpeedPrecipitationEventsConditions
3:50 AM56.0 °F52.0 °F83 %29.81 in3.0 miNE (40°)4.5 mphPartly Cloudy
6:15 AM50.0 °F46.4 °F87 %30.31 in8.0 miNNE (30°)5.8 mphMostly Cloudy
6:49 AM50.0 °F48.2 °F94 %30.32 in8.0 miNNE (30°)3.5 mphMostly Cloudy
6:50 AM55.0 °F54.0 °F94 %29.87 in3.0 miWNW (290°)2.2 mphPartly Cloudy
7:14 AM50.0 °F48.2 °F94 %30.33 in1.0 miWest (260°)4.6 mphOvercast
7:46 AM51.8 °F48.2 °F88 %30.34 in2.0 miWSW (240°)3.5 mphOvercast
8:47 AM55.4 °F50.0 °F82 %30.35 in2.0 miNW (320°)6.9 mphOvercast
9:41 AM62.6 °F51.8 °F68 %30.37 in2.0 miCalmMostly Cloudy
9:50 AM66.0 °F49.0 °F45 %29.96 in3.0 miENE (60°)2.2 mphHaze
10:47 AM68.0 °F50.0 °F52 %30.37 in3.0 miSE (140°)6.9 mphHaze
11:44 AM69.8 °F46.4 °F43 %30.35 in3.0 miCalmHaze
12:46 PM75.2 °F42.8 °F31 %30.33 in5.0 miNorth (360°)3.5 mphOvercast
12:50 PM75.0 °F47.0 °F27 %29.88 in3.0 miWSW (240°)2.2 mphHaze
1:43 PM78.8 °F42.8 °F28 %30.30 in5.0 miCalmOvercast
2:45 PM78.8 °F41.0 °F26 %30.26 in5.0 miCalmOvercast
3:49 PM77.0 °F44.6 °F32 %30.23 in5.0 miSSW (200°)5.8 mphOvercast
3:50 PM81.0 °F49.0 °F23 %29.70 in3.0 miSSE (150°)2.2 mphHaze
4:40 PM77.0 °F44.6 °F32 %30.24 in5.0 miSSW (210°)12.7 mphOvercast
5:41 PM60.8 °F50.0 °F68 %30.30 in6.0 miNNE (20°)12.7 mphOvercast
6:47 PM59.0 °F50.0 °F72 %30.34 in6.0 miNorth (360°)10.4 mphOvercast
6:50 PM70.0 °F42.0 °F25 %29.67 in3.0 miNorth4.5 mphHaze
7:41 PM59.0 °F48.2 °F67 %30.37 in6.0 miNNW (340°)9.2 mphOvercast
8:40 PM59.0 °F46.4 °F63 %30.38 in8.0 miNorth (360°)11.5 mphMostly Cloudy
9:50 PM60.0 °F51.0 °F64 %29.77 in3.0 miCalmRainLight Drizzle
9:55 PM59.0 °F46.4 °F63 %30.40 in8.0 miNNW (340°)11.5 mphMostly Cloudy
10:40 PM59.0 °F44.6 °F59 %30.40 in8.0 miNNW (330°)8.1 mphMostly Cloudy
Hourly data recorded from MMPB, located miles away from Puebla - Jardines de San Manuel, Puebla







STORIES FROM OUR PARTNERS